SDA-1674

导读

SDA_1674是美国太空发展局(SDA)于2025年10月15日发射的军用低轨卫星,隶属于美军“扩增作战部队太空架构”(PWSA)项目。作为该项目传输层或跟踪层卫星的一员,它依托低轨部署优势,可通过激光星间链路实现低延迟数据传输,若为跟踪层卫星则配备红外传感器,用于弥补美军对高超声速导弹的探测短板,支撑美军联合全域指挥控制与导弹预警追踪能力,是美国构建大规模弹性低轨军事星座的重要组成部分。

Basic Information
目录编号:
65984
目录名称:
SDA_1674
国际标识:
2025-230L
轨道中心:
EARTH
卫星名称:
SDA_1674
卫星全名:
SDA-1674
卫星状态:
在轨 (已飞行325 天)
发射日期:
2025-10-15 UTC
国别 :
美国 (US)
星等 :
--
Orbit Information
数据来源 国际轨道数据
星历时间: 2026-09-05T18:16:39+0800
7小时前
查看轨道信息
半长轴: 7334.738km
偏心率: 0.0001942
轨道倾角: 81.301°
近地点辐角 42.455°
升交点赤经 137.678°
平近点角 317.675°
近地点: 955.176km
远地点: 958.026km
周期: 104.193分钟
每日圈数: 13.820567
Detailed Information
使用方式:
暂无
2D Orbit Map
3D Orbit Map
Orbit Altitude Analysis Chart
Orbit Inclination Analysis Chart
Orbit Comprehensive Analysis Chart
View Comprehensive Chart
Conjunction Data List
Event ID Objects TCA Miss Dist (km) Collision Risk Probability Collision Risk Index (CRI) Action
CDM_260906-041200-393206-598422
SDA_1674 (65984)
2026-09-06T
04:12:57+0000
1.584 km
极远距离
4.74733E-6 低风险 0.49
CDM_260905-155606-496106-598423
SDA_1674 (65984)
2026-09-05T
15:56:56+0000
2.225 km
极远距离
1.887135E-6 低风险 0.41